User: anonymous
Location: Mentone
(34.5413°N, 85.5351°W)
Time: 04:35:24
(UTC-05:00)
Language:

Transit 2A Rocket - Orbit

View from above orbital plane
View from above orbital plane
View from above satellite
View from above satellite

Ground track
Ground track

The orbit data is extracted from the following two-line orbital elements,

1 00047U 60007C   14106.42632558  .00000272  00000-0  87410-4 0  1820
2 00047 066.6679 059.3561 0226505 153.3257 207.9715 14.41065252810187
Epoch (UTC): 16 April 2014 10:13:54
Eccentricity: 0.0226505
inclination: 66.6679°
perigee height: 593 km
apogee height: 916 km
right ascension of ascending node: 59.3561°
argument of perigee: 153.3257°
revolutions per day: 14.41065252
mean anomaly at epoch: 207.9715°
orbit number at epoch: 81018

The dashed part of the orbit path shows where the satellite is in the earth's shadow,  

DLR